Dewpoint
-8 -8 -8 -7 -5 -1 6 9 8 9 9 8 8 9 7 5 3 3 -1 -7 -14 -9 -6 -13 -15 -12 -9 -6 -4 -4 -2 -4 -5 -4 -8 -8 -7 -6 -6 -6 -6 -6 -7 -7 -6
-8 -8 -8 -9 -8 -6 1 8 5 8 8 8 7 7 8 5 4 0 -6 -10 -9 -6 -9 -13 -13 -11 -9 -7 -4 -4 -6 -6 -7 -9 -10 -9 -7 -7 -6 -5 -5 -6 -6 -6 -6
-7 -7 -7 -7 -8 -8 -7 -3 5 6 9 8 7 7 7 7 2 -7 -9 -5 -5 -6 -10 -12 -11 -10 -10 -7 -5 -6 -5 -9 -10 -10 -10 -10 -9 -8 -6 -6 -7 -7 -7 -6 -6
-7 -8 -9 -9 -9 -8 -8 -7 -6 0 5 7 7 8 7 6 2 -3 -1 -5 -6 -8 -5 -10 -10 -10 -8 -7 -6 -5 -6 -8 -8 -8 -7 -7 -9 -6 -7 -9 -10 -10 -9 -7 -7
-6 -7 -8 -9 -10 -10 -10 -9 -7 -6 4 6 7 7 7 5 2 2 -2 -6 -7 -7 -5 -10 -10 -10 -9 -9 -10 -5 -7 -8 -8 -8 -8 -8 -7 -6 -7 -8 -8 -8 -7 -7 -7
-18 -12 -10 -10 -10 -10 -10 -9 -8 -7 -0 7 8 8 6 4 -0 1 -4 -6 -9 -6 -3 -9 -9 -8 -8 -7 -8 -8 -7 -5 -5 -4 -6 -6 -6 -6 -6 -5 -6 -7 -6 -6 -7
-21 -16 -10 -9 -10 -10 -10 -9 -9 -8 -8 2 6 6 5 -0 -0 0 -3 -7 -7 -6 -3 -6 -7 -6 -5 -4 -4 -3 -1 -1 -1 -2 -2 -4 -1 -3 -3 -4 -5 -5 -6 -6 -6
-25 -20 -12 -9 -8 -9 -8 -4 -4 -8 -10 -4 3 5 3 2 1 -1 -5 -7 -7 -6 -5 -5 -4 -3 -4 -4 -0 1 -1 3 -0 -5 -4 -3 -0 -3 -6 -5 -5 -5 -5 -6 -6
-27 -20 -11 -9 -7 -6 -1 1 2 2 2 2 5 4 3 0 -4 -4 -5 -7 -9 -6 -6 -4 -2 -3 -2 1 1 0 2 2 1 -5 -4 -5 -3 -5 -6 -5 -6 -5 -5 -6 -7
-27 -25 -14 -10 -8 -6 1 3 4 6 5 5 5 3 2 -1 -0 -4 -8 -10 -7 -3 -4 -3 -4 -2 -3 -0 2 -1 2 1 2 -4 -4 -3 -3 -5 -6 -5 -5 -5 -4 -5 -5
-25 -24 -16 -10 -8 -6 3 2 2 3 2 4 1 1 2 1 -1 -4 -6 -8 -8 -4 -1 -3 -1 0 -2 -1 -2 -1 -1 0 -2 -6 -6 -5 -5 -7 -9 -6 -4 -4 -4 -4 -4
-21 -10 -7 -10 -7 -4 3 3 3 2 2 0 3 2 3 3 -1 -7 -7 -9 -7 -5 -3 -4 -2 -4 -4 -4 -3 -2 -1 -2 -5 -10 -9 -8 -8 -7 -5 -5 -4 -5 -3 -7 -10
-16 -19 -0 -3 -4 -3 4 4 1 1 3 2 4 1 -3 -6 -7 -8 -8 -10 -9 -7 -4 -5 -6 -6 -5 -4 -3 -3 -2 -5 -9 -10 -9 -7 -3 -4 -4 -8 -9 -9 -11 -16 -18
1 -15 -6 0 -3 3 4 4 2 1 1 -1 1 -8 -10 -13 -12 -11 -10 -7 -11 -9 -9 -8 -10 -11 -8 -9 -8 -8 -9 -10 -9 -8 -3 -7 1 -3 -2 -4 -9 -11 -12 -16 -21
2 -1 -13 2 1 0 3 3 2 2 -3 -5 -8 -10 -13 -10 -2 -1 -5 -6 -3 -5 -4 -1 -10 -11 -10 -11 -12 -9 -10 -10 -9 -6 -3 -3 -2 -2 -2 -4 -6 -11 -17 -21 -20
-1 2 -6 3 1 -1 4 4 2 -2 -2 -3 -8 -8 -0 -0 1 -4 -6 -7 -8 -7 -6 -5 -8 -11 -11 -11 -12 -9 -6 -6 -3 -3 -1 -5 -2 -2 -2 -3 -11 -14 -16 -19 -14
1 -1 -2 1 1 -1 2 4 1 1 -3 3 3 1 -1 -0 1 -0 -2 -2 -2 -2 -2 -2 -5 -11 -11 -10 -9 -7 -5 -1 -0 -2 1 -4 -2 -1 -5 -9 -9 -12 -15 -18 -9
-1 -0 -4 -0 2 -1 1 3 2 -5 -1 0 -0 -1 -1 -2 -1 -1 -3 -3 -3 -3 -3 1 1 -9 -10 -8 -3 -7 -5 0 1 -1 -5 -3 -0 -2 -9 -10 -15 -15 -14 -15 -7
-0 -1 -3 -4 1 1 2 2 -2 -2 -1 1 -1 -1 3 -1 -1 -0 -1 -2 -2 -3 -0 -2 1 -10 -11 -12 -12 -7 -5 -6 -5 -7 -4 -6 -7 -9 -11 -12 -14 -12 -16 -11 -6
-0 -1 -2 -5 -0 1 1 1 -1 -3 2 -0 -1 0 1 1 -1 -1 -0 -2 -1 -0 -0 -2 1 -6 -9 -11 -11 -9 -8 -1 -2 0 -5 -9 -8 -7 -11 -14 -12 -9 -14 -9 -6
-1 -0 -1 -1 1 2 1 0 -0 1 1 1 -0 0 -1 1 1 2 -0 -1 1 -0 -1 -2 -2 -2 -7 -7 -6 -8 -5 -6 -2 -3 -4 -7 -6 -5 -11 -11 -9 -10 -13 -8 -6
-1 1 1 2 1 1 2 -0 0 2 0 1 0 1 1 0 1 2 2 2 0 -1 -1 -2 -4 -3 -2 -7 -8 -9 -8 -4 1 -2 -4 -5 -4 -8 -11 -11 -12 -13 -10 -6 -5
-1 0 1 1 2 -0 -2 -0 -1 -0 -1 0 1 2 2 1 1 1 2 0 -1 -0 -2 -3 -5 -3 -4 -4 -8 -4 -8 -3 -4 -3 -2 -2 -4 -9 -10 -12 -15 -13 -8 -6 -5
-1 0 1 0 0 -1 0 0 0 1 1 1 2 2 1 2 1 0 1 -0 -0 0 1 -2 -4 -3 -1 -0 -1 -3 -5 -2 -0 -1 -1 -1 -5 -12 -11 -14 -13 -10 -7 -6 -5
-1 -0 -1 0 -1 -1 -1 -2 1 2 1 0 1 2 1 1 1 1 1 0 -1 -1 -1 -3 -3 -6 -3 -3 -1 -0 -3 -2 -0 -2 0 -4 -8 -10 -10 -13 -13 -9 -7 -6 -5
-1 -1 -0 -3 -2 -2 -1 -2 0 1 0 1 1 1 0 0 -3 -1 -1 -2 -2 -3 -0 -5 -3 -2 -2 -3 -2 -0 -1 -0 -2 -2 -2 -3 -3 -9 -12 -13 -11 -8 -7 -7 -6
-1 -1 -1 -1 -5 -2 -1 -2 -2 -1 0 -0 0 0 0 -0 -1 -1 -1 -1 -2 -3 -4 -3 -4 -3 -2 -1 -2 -0 -0 -1 -1 -2 -2 -1 -4 -12 -12 -14 -11 -8 -7 -7 -6
Wind_Speed
20 20 20 21 20 18 17 17 19 19 21 22 22 21 19 19 19 19 4 4 2 4 5 3 1 3 4 5 5 5 2 3 4 5 3 1 1 1 2 3 5 6 4 3 13
22 22 22 21 21 20 17 18 19 19 20 21 22 21 20 20 19 9 5 2 2 4 3 1 3 4 4 4 4 3 3 7 3 3 3 2 3 3 3 4 5 8 12 9 13
24 24 23 23 22 21 20 19 20 20 19 19 21 20 18 20 18 2 2 2 3 2 2 1 1 3 3 4 5 4 4 3 3 8 5 2 3 4 3 5 12 9 10 13 19
23 24 24 25 24 22 21 20 19 19 21 22 18 17 16 19 5 2 4 3 3 1 3 1 1 2 3 3 5 2 8 6 3 2 2 3 4 3 13 14 9 11 11 13 20
25 26 25 25 25 25 23 21 19 18 15 14 15 16 16 11 13 10 5 3 3 0 3 0 3 4 3 3 3 4 3 4 9 9 9 9 11 7 16 17 16 16 14 15 18
26 27 26 27 26 26 24 23 19 17 16 14 15 14 15 6 6 6 4 4 3 0 3 1 3 4 2 3 4 3 5 9 11 16 8 5 5 5 7 8 16 18 17 17 20
30 27 27 27 28 27 25 22 20 17 15 14 14 17 16 19 8 6 5 3 3 3 3 2 4 5 4 2 2 2 5 5 5 3 4 2 6 8 16 12 9 12 14 18 20
30 30 28 28 28 27 24 23 21 17 14 11 10 9 8 7 7 7 7 6 6 4 3 3 4 4 3 1 2 1 1 3 1 1 1 3 6 4 4 6 9 10 13 17 19
31 29 27 27 27 25 22 20 19 14 9 6 5 6 7 4 6 7 8 7 5 4 4 3 2 2 2 3 2 2 3 3 6 2 2 4 6 4 4 6 9 13 17 18 18
31 30 28 26 25 24 19 18 14 7 5 4 8 4 7 3 3 4 6 7 4 6 4 2 3 3 2 2 4 3 3 3 5 1 0 4 16 12 15 13 18 14 14 18 18
30 29 27 26 24 21 17 15 5 2 4 7 3 4 4 5 5 5 6 6 5 3 2 2 2 5 7 6 1 1 3 5 4 3 3 8 15 14 10 10 14 15 14 15 14
28 27 26 24 22 18 11 6 5 7 8 14 17 16 15 10 4 7 7 6 4 3 3 3 5 5 2 3 3 3 3 5 5 2 3 6 17 14 3 0 4 7 11 8 6
30 26 25 24 22 13 6 5 7 12 4 8 8 8 6 8 5 7 8 5 3 3 4 5 3 4 4 4 4 3 4 3 5 4 2 7 6 4 1 3 7 11 10 4 5
32 29 21 25 16 9 7 2 4 6 3 5 3 4 6 5 2 5 6 2 1 4 5 5 3 3 3 4 6 3 2 2 2 3 3 4 5 4 1 1 3 5 1 7 11
24 24 22 19 21 15 7 3 1 2 3 2 3 4 5 3 6 1 4 2 4 4 4 4 3 4 3 4 5 2 2 1 0 1 2 1 1 5 1 2 2 3 6 10 14
37 23 18 21 16 16 10 5 6 5 7 3 4 4 3 1 2 3 1 2 2 1 1 5 3 2 2 2 2 3 3 4 3 2 1 3 3 3 1 3 2 3 8 14 19
35 36 16 21 15 9 8 5 2 4 2 5 4 4 2 3 1 3 2 3 1 3 3 3 1 1 1 2 2 2 3 3 4 3 3 2 2 6 1 3 5 5 13 17 19
30 24 17 19 15 12 10 2 5 4 5 1 4 4 4 5 1 1 4 1 3 3 3 2 3 3 1 1 2 2 2 3 4 2 3 1 5 3 2 3 3 8 13 16 20
22 18 21 16 16 14 7 4 7 4 5 2 2 4 3 2 4 2 2 4 2 1 4 2 3 2 3 1 1 1 1 1 3 1 1 3 5 2 3 2 3 10 14 19 22
18 15 20 12 15 13 6 10 5 5 3 3 4 1 5 2 3 3 0 0 3 2 1 1 3 2 1 2 4 2 3 2 2 1 4 4 4 2 2 2 6 7 16 22 24
9 6 4 8 15 9 4 5 5 7 8 3 1 1 2 4 3 2 3 1 2 3 2 3 2 4 1 4 5 2 1 2 1 3 3 3 3 2 5 4 7 8 16 21 23
5 3 4 11 4 2 4 5 2 4 6 2 2 2 3 3 2 1 3 2 4 3 3 2 3 3 5 1 1 0 2 5 3 3 1 1 5 1 2 4 5 14 17 19 20
4 4 5 12 3 2 2 2 1 2 5 3 1 2 1 2 1 1 3 4 6 4 4 4 1 3 6 3 2 2 4 3 4 1 5 3 3 2 2 3 5 10 17 19 20
7 2 4 6 3 3 3 2 0 4 3 5 2 3 2 2 1 2 2 3 7 4 6 6 3 6 5 3 2 3 3 6 7 3 4 7 4 4 5 3 7 11 15 18 19
4 3 3 2 4 3 1 2 4 3 3 4 2 3 3 3 2 2 1 3 3 2 2 4 4 4 6 11 10 10 7 10 13 7 7 2 5 4 5 4 6 11 15 17 20
6 4 3 5 1 5 6 4 8 2 5 2 3 5 3 3 4 4 2 1 3 3 3 1 3 2 5 10 5 10 12 13 17 14 12 13 19 3 3 3 5 9 13 17 20
9 13 8 6 4 3 4 5 5 7 1 0 7 4 3 3 4 3 3 1 3 5 4 3 2 1 4 2 5 4 5 9 5 5 8 8 3 3 3 3 3 9 11 15 18
Wind_Direction
337 335 333 329 323 312 303 305 310 312 312 314 315 316 320 323 328 325 290 162 162 333 336 325 212 167 168 155 151 145 93 228 238 172 235 213 211 223 174 179 204 215 224 209 183
340 339 337 334 329 322 307 293 298 299 305 310 316 315 320 328 326 313 160 148 309 324 341 25 130 146 157 157 162 121 167 220 220 203 218 221 207 207 185 211 227 237 236 231 205
343 343 341 338 333 326 318 304 291 293 297 301 313 313 317 327 326 185 137 311 308 321 351 352 124 151 162 165 185 170 211 210 249 240 257 246 246 219 192 251 229 233 247 226 208
344 341 341 338 333 328 322 314 303 289 280 288 301 310 315 327 308 226 287 295 294 195 359 347 97 138 151 201 187 202 241 225 258 215 214 218 241 232 221 247 267 273 253 232 213
345 341 341 338 335 330 324 317 309 297 291 285 288 291 307 303 282 257 246 258 264 244 10 342 211 182 193 192 178 216 252 240 259 272 260 254 244 235 253 259 257 253 250 239 222
346 340 341 339 338 335 327 320 312 300 287 281 283 285 304 281 257 241 220 263 206 297 347 258 188 193 208 223 197 203 268 269 280 267 249 217 260 187 267 254 254 248 248 234 222
341 341 340 340 338 337 331 321 312 304 290 275 272 279 289 274 238 225 216 227 224 276 293 231 204 195 165 243 264 288 308 312 235 246 217 175 273 231 266 266 252 242 235 222 214
338 339 338 338 339 337 336 330 320 308 296 283 273 281 255 254 214 223 207 224 236 260 255 218 219 218 201 243 11 311 59 315 214 139 183 158 263 255 279 225 242 238 222 212 212
334 335 335 335 335 336 338 334 324 310 303 278 255 260 265 225 202 196 221 216 227 243 203 186 189 133 103 112 344 356 245 227 306 181 153 186 265 262 239 225 247 235 221 213 214
329 329 330 331 331 333 337 338 323 327 316 244 248 257 242 208 223 226 210 213 200 157 147 165 98 89 64 132 230 189 235 242 252 269 203 257 263 267 258 253 259 254 222 215 217
322 322 324 327 327 330 335 345 346 316 320 232 254 246 255 259 236 217 202 180 171 158 127 48 88 217 212 205 150 159 211 245 249 261 275 252 271 273 288 239 247 243 216 208 211
315 316 319 321 323 323 330 352 350 318 304 279 251 250 264 251 237 203 186 186 147 131 129 30 244 235 200 166 209 212 235 257 275 255 208 282 283 283 303 325 292 264 191 180 207
310 309 311 315 317 308 307 324 335 327 297 287 226 227 217 202 213 188 185 167 136 139 174 183 200 110 166 183 195 217 209 232 247 320 252 302 284 338 23 90 80 99 121 68 337
310 308 303 310 309 302 291 293 336 335 9 274 215 212 190 192 186 173 178 174 105 180 168 224 261 210 171 206 162 253 196 229 272 14 270 20 288 299 292 311 137 136 66 328 326
298 302 296 297 302 299 275 267 309 18 355 170 162 165 167 186 136 149 194 155 178 174 120 256 184 206 215 216 177 204 80 24 0 125 0 345 94 270 5 324 150 174 292 320 334
299 294 288 280 290 296 277 258 163 52 249 198 147 173 136 61 95 125 102 113 110 115 344 248 273 218 200 72 68 120 97 47 45 97 352 242 167 279 204 199 144 243 304 337 337
307 305 282 269 275 272 261 227 140 194 296 186 179 167 134 166 122 131 88 32 140 47 347 313 212 89 140 125 59 74 72 318 336 14 227 236 192 256 179 181 190 246 328 337 337
297 298 256 261 261 263 244 193 190 251 243 89 123 107 171 172 32 95 106 30 36 73 91 67 321 167 57 113 159 146 166 162 253 300 296 187 240 260 121 157 212 296 321 330 335
307 276 271 256 265 248 214 207 198 222 302 185 73 142 155 124 126 94 105 160 91 111 158 115 273 66 45 100 101 176 170 180 100 159 326 240 273 103 164 177 283 324 330 335 340
300 269 254 248 254 223 220 223 194 195 335 313 194 122 178 129 156 96 235 38 124 67 31 192 307 25 62 104 40 141 150 70 46 283 282 271 265 238 163 245 315 322 328 336 340
262 259 256 219 217 205 209 238 211 173 131 329 191 163 135 144 158 188 162 118 121 126 66 120 94 282 328 201 174 133 171 83 101 167 205 293 275 257 174 229 282 310 329 334 339
252 256 196 177 176 193 217 200 199 147 112 171 115 232 125 173 181 144 121 99 129 117 101 114 139 259 232 17 350 124 165 160 198 236 197 283 274 351 219 250 286 305 327 339 345
270 264 217 193 213 211 276 275 232 132 154 129 120 65 70 160 98 170 98 146 155 136 153 180 332 337 346 17 22 202 196 147 110 120 208 180 258 181 256 282 290 304 335 345 347
300 276 213 226 230 166 163 245 159 21 84 82 127 107 109 172 57 166 141 168 174 137 193 176 160 196 211 199 148 238 212 186 188 194 173 235 258 199 300 307 312 335 341 347 349
280 282 340 225 239 145 197 144 179 161 67 142 142 181 157 160 113 198 152 132 147 99 76 140 217 179 256 263 248 245 216 190 209 212 211 260 237 235 262 246 295 330 344 350 352
279 280 304 288 253 145 183 227 183 158 155 194 146 154 151 137 169 188 125 144 203 31 183 340 262 200 273 257 234 253 245 221 218 229 243 274 286 178 221 269 311 345 351 348 351
286 264 282 309 331 134 200 210 192 133 321 144 149 122 141 131 128 132 166 155 154 158 195 183 180 22 268 327 299 273 235 216 192 203 218 229 250 156 232 238 324 345 354 346 347
Height
1511 1508 1505 1504 1502 1501 1500 1498 1496 1494 1492 1491 1490 1488 1485 1482 1479 1476 1474 1475 1475 1475 1475 1476 1475 1475 1477 1477 1479 1480 1486 1486 1481 1482 1474 1474 1475 1475 1475 1475 1475 1475 1475 1476 1476
1511 1507 1504 1501 1499 1497 1495 1494 1493 1491 1489 1488 1486 1485 1484 1479 1476 1473 1473 1473 1473 1474 1474 1475 1474 1474 1476 1477 1478 1479 1485 1479 1475 1474 1474 1473 1474 1474 1474 1473 1474 1473 1473 1474 1475
1510 1506 1502 1500 1497 1494 1492 1490 1489 1488 1486 1484 1483 1481 1481 1478 1475 1471 1472 1472 1473 1472 1473 1473 1473 1473 1475 1476 1477 1479 1478 1475 1472 1472 1472 1473 1472 1471 1471 1470 1469 1469 1470 1471 1472
1509 1506 1499 1498 1495 1491 1489 1485 1484 1483 1482 1481 1479 1478 1478 1477 1479 1472 1471 1471 1472 1472 1472 1471 1471 1472 1475 1475 1476 1478 1473 1473 1471 1470 1470 1471 1470 1468 1467 1464 1466 1466 1467 1467 1468
1506 1504 1498 1494 1492 1488 1485 1482 1480 1478 1477 1478 1476 1475 1476 1475 1472 1469 1470 1470 1470 1471 1470 1469 1470 1472 1473 1474 1475 1475 1471 1471 1469 1469 1468 1468 1466 1466 1460 1462 1463 1463 1463 1464 1465
1503 1503 1497 1493 1489 1484 1481 1478 1475 1474 1473 1473 1474 1472 1472 1473 1468 1468 1466 1469 1468 1469 1469 1469 1469 1470 1471 1473 1474 1472 1470 1469 1466 1464 1465 1465 1463 1463 1456 1456 1458 1459 1459 1461 1462
1504 1500 1496 1491 1487 1482 1478 1475 1473 1470 1469 1470 1471 1470 1468 1467 1463 1466 1465 1466 1467 1467 1468 1468 1468 1469 1470 1471 1471 1470 1471 1467 1463 1462 1462 1463 1462 1457 1453 1454 1454 1455 1457 1458 1460
1501 1497 1493 1489 1485 1481 1474 1473 1468 1466 1467 1466 1468 1467 1463 1463 1462 1462 1463 1464 1465 1465 1465 1466 1467 1468 1469 1470 1470 1471 1472 1468 1461 1461 1462 1463 1454 1452 1451 1452 1452 1453 1454 1456 1458
1498 1495 1491 1487 1483 1479 1474 1469 1466 1464 1464 1465 1466 1465 1461 1460 1461 1460 1462 1461 1462 1463 1464 1465 1466 1467 1469 1471 1472 1473 1468 1472 1463 1460 1461 1461 1455 1450 1450 1450 1450 1450 1451 1454 1456
1496 1493 1489 1485 1481 1476 1472 1468 1464 1462 1462 1462 1464 1466 1461 1459 1460 1459 1460 1460 1460 1462 1463 1464 1464 1468 1472 1472 1468 1467 1469 1469 1467 1462 1461 1460 1450 1449 1449 1449 1447 1448 1450 1451 1452
1493 1490 1486 1483 1479 1475 1471 1468 1467 1463 1460 1459 1460 1459 1458 1458 1459 1457 1458 1458 1458 1460 1463 1464 1466 1466 1464 1466 1466 1466 1468 1467 1464 1461 1461 1456 1449 1445 1444 1444 1444 1444 1446 1449 1451
1488 1485 1481 1479 1476 1473 1469 1468 1468 1467 1457 1453 1454 1455 1456 1455 1457 1455 1457 1457 1456 1460 1462 1466 1464 1460 1461 1464 1466 1468 1468 1466 1462 1461 1462 1456 1445 1440 1442 1443 1442 1442 1444 1447 1449
1484 1480 1478 1475 1473 1470 1467 1466 1465 1465 1460 1449 1449 1452 1453 1454 1453 1452 1455 1453 1454 1457 1460 1463 1456 1458 1459 1463 1465 1466 1465 1464 1462 1461 1460 1458 1443 1446 1442 1444 1444 1443 1445 1446 1447
1478 1476 1473 1472 1473 1468 1465 1462 1463 1464 1469 1452 1448 1449 1450 1451 1452 1451 1452 1454 1454 1456 1458 1461 1456 1456 1459 1458 1459 1460 1461 1461 1462 1462 1462 1458 1454 1442 1442 1445 1443 1445 1444 1445 1445
1469 1470 1470 1468 1469 1467 1465 1461 1461 1464 1492 1447 1447 1448 1448 1451 1450 1451 1451 1451 1453 1453 1457 1454 1454 1455 1455 1454 1455 1456 1459 1462 1463 1465 1469 1466 1470 1438 1441 1443 1442 1445 1443 1443 1441
1465 1462 1464 1463 1463 1464 1462 1460 1460 1479 1483 1445 1444 1446 1448 1448 1448 1450 1451 1452 1452 1454 1455 1455 1453 1453 1453 1455 1455 1458 1461 1467 1471 1470 1477 1475 1464 1432 1439 1445 1444 1443 1442 1440 1437
1457 1456 1459 1459 1458 1458 1459 1459 1467 1470 1443 1441 1442 1443 1445 1448 1449 1448 1455 1456 1460 1465 1469 1455 1453 1453 1452 1453 1457 1459 1464 1470 1467 1476 1456 1472 1462 1437 1441 1444 1443 1441 1438 1438 1436
1451 1449 1453 1452 1453 1455 1455 1458 1462 1453 1446 1437 1437 1441 1444 1447 1450 1449 1452 1462 1457 1461 1478 1465 1455 1453 1453 1453 1455 1460 1462 1466 1468 1462 1459 1462 1457 1430 1442 1442 1440 1438 1438 1436 1433
1445 1442 1444 1446 1448 1451 1453 1450 1457 1451 1443 1439 1439 1440 1444 1445 1449 1451 1452 1459 1459 1462 1465 1476 1456 1455 1455 1455 1457 1462 1471 1465 1472 1490 1473 1450 1442 1442 1443 1441 1439 1437 1435 1433 1429
1442 1440 1435 1441 1444 1447 1450 1441 1440 1442 1443 1440 1441 1442 1444 1447 1449 1455 1456 1456 1458 1460 1461 1467 1465 1457 1457 1456 1458 1458 1462 1464 1470 1470 1473 1445 1438 1426 1442 1440 1437 1435 1434 1430 1427
1441 1439 1435 1435 1441 1445 1443 1442 1436 1434 1437 1446 1443 1450 1443 1450 1452 1452 1455 1457 1458 1461 1461 1465 1470 1462 1458 1458 1456 1462 1463 1464 1466 1471 1468 1456 1425 1443 1444 1444 1439 1436 1434 1430 1426
1441 1439 1434 1436 1441 1440 1439 1438 1436 1433 1435 1440 1441 1444 1444 1446 1448 1450 1451 1453 1458 1459 1462 1465 1473 1476 1456 1458 1457 1457 1456 1458 1457 1472 1475 1468 1437 1444 1443 1441 1440 1437 1433 1429 1425
1442 1437 1436 1436 1435 1439 1437 1435 1434 1434 1435 1438 1441 1443 1446 1447 1453 1449 1449 1456 1457 1458 1463 1465 1478 1478 1462 1463 1458 1458 1455 1458 1467 1469 1465 1454 1428 1444 1443 1440 1438 1436 1431 1428 1423
1444 1437 1435 1435 1433 1434 1438 1437 1437 1435 1436 1438 1442 1444 1446 1448 1450 1453 1451 1456 1456 1457 1459 1462 1471 1467 1459 1453 1457 1461 1456 1455 1455 1459 1450 1444 1433 1442 1440 1440 1437 1434 1431 1427 1422
1444 1438 1435 1433 1434 1433 1435 1436 1436 1437 1438 1439 1442 1443 1445 1449 1451 1451 1451 1454 1457 1458 1459 1461 1470 1473 1459 1452 1450 1449 1453 1451 1450 1446 1444 1437 1444 1442 1440 1439 1436 1433 1430 1426 1421
1445 1441 1435 1433 1431 1432 1434 1437 1434 1438 1438 1440 1441 1441 1445 1447 1451 1452 1454 1456 1456 1460 1458 1462 1463 1460 1455 1441 1444 1444 1440 1441 1442 1440 1442 1441 1433 1434 1437 1437 1435 1432 1430 1426 1421
1443 1439 1438 1433 1435 1434 1431 1431 1431 1433 1439 1438 1438 1442 1445 1447 1449 1451 1452 1453 1455 1458 1461 1460 1464 1462 1454 1443 1447 1442 1434 1433 1433 1435 1433 1437 1431 1436 1437 1436 1434 1432 1430 1426 1422